SUR4729 SCEL-SLLP

Flight info

Callsign SUR4729
Flight time N/A
Altitude 35000
Route DILOK1J DILOK Q814 PABOS/N0452F340 UT276 ENTOP/N0411F240 Q815 LOA/N0460F340 UL309 EMPEX/N0459F350 UL309 IROBO
Aircraft A320/M-SDE3FGHIRWY/LB1

Departure

Time 2026-05-01 13:42
Airport Comodoro Arturo Merino Benítez International Airport (SCEL)

Arrival

Time N/A
Airport El Alto International Airport (SLLP)
Time Latitude Longitude Altitude Speed Heading
2026-05-01 13:10 -33.39608 -70.79609 1563 ft 0 kts 178°
2026-05-01 13:29 -33.39588 -70.79608 1563 ft 2 kts 191°
2026-05-01 13:29 -33.39560 -70.79596 1563 ft 2 kts 210°
2026-05-01 13:30 -33.39521 -70.79542 1563 ft 2 kts 251°
2026-05-01 13:31 -33.39516 -70.79514 1563 ft 1 kts 267°
2026-05-01 13:31 -33.39516 -70.79509 1563 ft 0 kts 269°
2026-05-01 13:34 -33.39516 -70.79510 1563 ft 0 kts 269°
2026-05-01 13:34 -33.39520 -70.79598 1563 ft 10 kts 267°
2026-05-01 13:35 -33.39526 -70.79779 1563 ft 9 kts 268°
2026-05-01 13:35 -33.39529 -70.79863 1563 ft 10 kts 268°
2026-05-01 13:35 -33.39514 -70.80029 1563 ft 9 kts 315°
2026-05-01 13:36 -33.39449 -70.80049 1563 ft 10 kts 359°
2026-05-01 13:36 -33.39372 -70.80052 1563 ft 11 kts 358°
2026-05-01 13:36 -33.39192 -70.80062 1563 ft 15 kts 357°
2026-05-01 13:37 -33.39076 -70.80068 1563 ft 18 kts 358°
2026-05-01 13:37 -33.38940 -70.80076 1563 ft 20 kts 358°
2026-05-01 13:37 -33.38789 -70.80084 1563 ft 22 kts 358°
2026-05-01 13:37 -33.38633 -70.80092 1563 ft 21 kts 357°
2026-05-01 13:38 -33.38322 -70.80109 1563 ft 22 kts 357°
2026-05-01 13:38 -33.38166 -70.80117 1563 ft 22 kts 358°
2026-05-01 13:38 -33.38014 -70.80125 1563 ft 21 kts 357°
2026-05-01 13:39 -33.37867 -70.80132 1563 ft 20 kts 357°
2026-05-01 13:39 -33.37723 -70.80141 1563 ft 20 kts 357°
2026-05-01 13:39 -33.37581 -70.80148 1563 ft 20 kts 358°
2026-05-01 13:39 -33.37442 -70.80156 1563 ft 19 kts 357°
2026-05-01 13:40 -33.37306 -70.80163 1563 ft 19 kts 357°
2026-05-01 13:40 -33.37186 -70.80170 1563 ft 13 kts 354°
2026-05-01 13:40 -33.37116 -70.80223 1563 ft 12 kts 296°
2026-05-01 13:40 -33.37121 -70.80324 1563 ft 12 kts 238°
2026-05-01 13:41 -33.37199 -70.80370 1563 ft 13 kts 182°
2026-05-01 13:41 -33.37346 -70.80364 1563 ft 46 kts 177°
2026-05-01 13:41 -33.37914 -70.80334 1564 ft 114 kts 177°
2026-05-01 13:41 -33.38903 -70.80283 1568 ft 166 kts 177°
2026-05-01 13:42 -33.40089 -70.80218 1989 ft 176 kts 176°
2026-05-01 13:42 -33.41341 -70.80155 2581 ft 184 kts 177°
2026-05-01 13:42 -33.42636 -70.80088 3212 ft 191 kts 176°
2026-05-01 13:42 -33.43986 -70.80011 3795 ft 198 kts 176°
2026-05-01 13:43 -33.45407 -70.79979 4149 ft 217 kts 184°
2026-05-01 13:43 -33.46971 -70.80371 4432 ft 241 kts 202°
2026-05-01 13:43 -33.48505 -70.81347 4921 ft 256 kts 217°
2026-05-01 13:43 -33.49826 -70.82805 5694 ft 259 kts 231°
2026-05-01 13:44 -33.50816 -70.84563 6529 ft 259 kts 246°
2026-05-01 13:44 -33.51348 -70.86597 7301 ft 258 kts 265°
2026-05-01 13:44 -33.51376 -70.88726 8102 ft 256 kts 280°
2026-05-01 13:44 -33.50973 -70.90780 8816 ft 257 kts 294°
2026-05-01 13:45 -33.50129 -70.92671 9022 ft 258 kts 310°
2026-05-01 13:45 -33.48872 -70.94171 9682 ft 259 kts 325°
2026-05-01 13:45 -33.47334 -70.95242 10698 ft 252 kts 336°
2026-05-01 13:45 -33.45728 -70.96081 11420 ft 257 kts 337°
2026-05-01 13:46 -33.44023 -70.96952 11820 ft 275 kts 337°
2026-05-01 13:46 -33.42228 -70.97867 12168 ft 292 kts 337°
2026-05-01 13:46 -33.40301 -70.98848 12465 ft 309 kts 338°
2026-05-01 13:46 -33.38221 -70.99693 13080 ft 316 kts 344°
2026-05-01 13:47 -33.36097 -71.00259 13810 ft 319 kts 349°
2026-05-01 13:47 -33.33870 -71.00555 14494 ft 324 kts 355°
2026-05-01 13:47 -33.31582 -71.00549 15125 ft 332 kts
2026-05-01 13:47 -33.29270 -71.00223 15719 ft 339 kts
2026-05-01 13:48 -33.26940 -70.99553 16318 ft 347 kts 13°
2026-05-01 13:48 -33.24633 -70.98524 16898 ft 355 kts 20°
2026-05-01 13:48 -33.22447 -70.97161 17468 ft 363 kts 27°
2026-05-01 13:48 -33.20306 -70.95447 17968 ft 371 kts 31°
2026-05-01 13:49 -33.18167 -70.93623 18208 ft 386 kts 32°
2026-05-01 13:49 -33.15949 -70.91711 18431 ft 399 kts 32°
2026-05-01 13:49 -33.13673 -70.89752 18810 ft 407 kts 32°
2026-05-01 13:49 -33.11366 -70.87772 19310 ft 412 kts 32°
2026-05-01 13:50 -33.09013 -70.85760 19818 ft 416 kts 32°
2026-05-01 13:50 -33.06646 -70.83740 20274 ft 421 kts 32°
2026-05-01 13:50 -33.04261 -70.81703 20707 ft 426 kts 32°
2026-05-01 13:50 -33.01884 -70.79608 21190 ft 431 kts 33°
2026-05-01 13:51 -32.99462 -70.77446 21669 ft 435 kts 33°
2026-05-01 13:51 -32.97042 -70.75286 22180 ft 438 kts 33°
2026-05-01 13:51 -32.94585 -70.73100 22796 ft 438 kts 32°
2026-05-01 13:51 -32.92068 -70.71146 23263 ft 435 kts 22°
2026-05-01 13:52 -32.89232 -70.69865 23743 ft 429 kts
2026-05-01 13:52 -32.86320 -70.69347 24236 ft 424 kts 358°
2026-05-01 13:52 -32.83360 -70.69156 24701 ft 426 kts 357°
2026-05-01 13:52 -32.80408 -70.69002 25149 ft 428 kts 357°
2026-05-01 13:53 -32.77407 -70.68837 25578 ft 431 kts 357°
2026-05-01 13:53 -32.71395 -70.68469 26387 ft 437 kts 358°
2026-05-01 13:53 -32.68358 -70.68270 26779 ft 439 kts 357°
2026-05-01 13:54 -32.65282 -70.68069 27142 ft 442 kts 358°
2026-05-01 13:54 -32.62181 -70.67862 27518 ft 444 kts 358°
2026-05-01 13:54 -32.59109 -70.67655 28005 ft 444 kts 358°
2026-05-01 13:54 -32.56053 -70.67448 28552 ft 441 kts 358°
2026-05-01 13:55 -32.52969 -70.67239 29063 ft 440 kts 357°
2026-05-01 13:55 -32.49933 -70.67037 29541 ft 439 kts 357°
2026-05-01 13:55 -32.46883 -70.66836 29977 ft 438 kts 358°
2026-05-01 13:55 -32.43831 -70.66634 30397 ft 438 kts 357°
2026-05-01 13:56 -32.40799 -70.66433 30844 ft 438 kts 357°
2026-05-01 13:56 -32.37765 -70.66232 31287 ft 437 kts 357°
2026-05-01 13:56 -32.34729 -70.66032 31724 ft 435 kts 357°
2026-05-01 13:56 -32.31729 -70.65835 32148 ft 434 kts 357°
2026-05-01 13:57 -32.28694 -70.65635 32563 ft 433 kts 357°
2026-05-01 13:57 -32.25673 -70.65437 32948 ft 432 kts 357°
2026-05-01 13:57 -32.22702 -70.65242 33333 ft 430 kts 357°
2026-05-01 13:57 -32.19695 -70.65044 33710 ft 430 kts 357°
2026-05-01 13:58 -32.16744 -70.64851 33995 ft 430 kts 357°
2026-05-01 13:58 -32.13717 -70.64655 34216 ft 431 kts 357°
2026-05-01 13:58 -32.10733 -70.64461 34430 ft 432 kts 357°
2026-05-01 13:58 -32.07724 -70.64263 34647 ft 433 kts 356°
2026-05-01 13:59 -32.04738 -70.64067 34878 ft 433 kts 357°
2026-05-01 13:59 -32.01683 -70.63867 35115 ft 433 kts 356°
2026-05-01 13:59 -31.98687 -70.63672 35331 ft 433 kts 356°
2026-05-01 13:59 -31.95676 -70.63477 35421 ft 434 kts 356°
2026-05-01 14:00 -31.89665 -70.63135 35428 ft 433 kts 355°
2026-05-01 14:00 -31.83559 -70.62878 35413 ft 432 kts 355°
2026-05-01 14:01 -31.77558 -70.62625 35440 ft 432 kts 355°
2026-05-01 14:01 -31.71515 -70.62366 35443 ft 432 kts 355°
2026-05-01 14:02 -31.65508 -70.62108 35346 ft 431 kts 354°
2026-05-01 14:02 -31.62511 -70.61978 35523 ft 430 kts 354°
2026-05-01 14:02 -31.59538 -70.61851 35507 ft 429 kts 354°
2026-05-01 14:03 -31.53539 -70.61595 35455 ft 430 kts 354°
2026-05-01 14:03 -31.47573 -70.61342 35459 ft 429 kts 354°
2026-05-01 14:04 -31.41586 -70.61086 35460 ft 429 kts 354°
2026-05-01 14:04 -31.35630 -70.60777 35464 ft 432 kts 356°
2026-05-01 14:05 -31.29645 -70.59830 35459 ft 437 kts
2026-05-01 14:05 -31.23669 -70.58427 35458 ft 438 kts
2026-05-01 14:06 -31.17679 -70.57016 35467 ft 437 kts
2026-05-01 14:06 -31.11728 -70.55622 35467 ft 438 kts
2026-05-01 14:07 -31.05766 -70.54227 35461 ft 437 kts
2026-05-01 14:08 -30.96789 -70.52128 35455 ft 436 kts
2026-05-01 14:08 -30.90836 -70.50741 35469 ft 435 kts
2026-05-01 14:09 -30.84870 -70.49353 35472 ft 435 kts
2026-05-01 14:09 -30.78938 -70.47976 35496 ft 437 kts
2026-05-01 14:10 -30.72953 -70.46587 35510 ft 435 kts
2026-05-01 14:10 -30.67050 -70.45215 35508 ft 436 kts
2026-05-01 14:11 -30.61078 -70.43826 35517 ft 434 kts
2026-05-01 14:11 -30.52189 -70.41772 35507 ft 436 kts
2026-05-01 14:12 -30.46255 -70.40399 35524 ft 434 kts
2026-05-01 14:12 -30.40345 -70.39033 35549 ft 433 kts
2026-05-01 14:13 -30.34414 -70.37672 35560 ft 433 kts
2026-05-01 14:13 -30.28517 -70.36314 35568 ft 435 kts
2026-05-01 14:14 -30.22587 -70.34951 35566 ft 433 kts
2026-05-01 14:14 -30.16673 -70.33566 35574 ft 431 kts
2026-05-01 14:15 -30.10776 -70.32193 35568 ft 431 kts
2026-05-01 14:15 -30.04896 -70.30838 35596 ft 430 kts
2026-05-01 14:16 -29.98970 -70.29485 35620 ft 432 kts
2026-05-01 14:16 -29.93117 -70.28143 35619 ft 429 kts 360°
2026-05-01 14:17 -29.87245 -70.26805 35644 ft 429 kts
2026-05-01 14:17 -29.81363 -70.25468 35635 ft 430 kts
2026-05-01 14:18 -29.75515 -70.24136 35614 ft 429 kts
2026-05-01 14:18 -29.70611 -70.23023 35581 ft 429 kts
2026-05-01 14:19 -29.63716 -70.21455 35600 ft 430 kts
2026-05-01 14:19 -29.57879 -70.20132 35610 ft 430 kts
2026-05-01 14:20 -29.49052 -70.18134 35641 ft 428 kts
2026-05-01 14:21 -29.43200 -70.16811 35630 ft 428 kts
2026-05-01 14:21 -29.37369 -70.15496 35635 ft 429 kts
2026-05-01 14:22 -29.28559 -70.13512 35628 ft 430 kts
2026-05-01 14:22 -29.22661 -70.12184 35623 ft 431 kts
2026-05-01 14:23 -29.16791 -70.10861 35632 ft 429 kts
2026-05-01 14:23 -29.10896 -70.09538 35655 ft 432 kts
2026-05-01 14:24 -29.04966 -70.08209 35657 ft 431 kts
2026-05-01 14:24 -28.99111 -70.06896 35470 ft 431 kts
2026-05-01 14:25 -28.96169 -70.06237 35704 ft 432 kts
2026-05-01 14:25 -28.93201 -70.05571 35678 ft 430 kts
2026-05-01 14:25 -28.87307 -70.04257 35671 ft 433 kts
2026-05-01 14:26 -28.78456 -70.02281 35640 ft 432 kts
2026-05-01 14:27 -28.72570 -70.00970 35646 ft 433 kts
2026-05-01 14:27 -28.66639 -69.99649 35648 ft 431 kts
2026-05-01 14:28 -28.57799 -69.97690 35634 ft 430 kts
2026-05-01 14:28 -28.51889 -69.96378 35639 ft 432 kts
2026-05-01 14:29 -28.45991 -69.95160 35632 ft 433 kts 359°
2026-05-01 14:30 -28.34038 -69.92919 35598 ft 434 kts 359°
2026-05-01 14:31 -28.25102 -69.91236 35577 ft 434 kts 359°
2026-05-01 14:31 -28.19147 -69.90114 35537 ft 435 kts 360°
2026-05-01 14:32 -28.13174 -69.88978 35547 ft 434 kts 360°
2026-05-01 14:32 -28.07179 -69.87848 35547 ft 435 kts 360°
2026-05-01 14:33 -28.01210 -69.86724 35531 ft 435 kts 360°
2026-05-01 14:33 -27.95206 -69.85596 35564 ft 434 kts 360°
2026-05-01 14:34 -27.89227 -69.84475 35545 ft 436 kts
2026-05-01 14:34 -27.83230 -69.83353 35545 ft 436 kts
2026-05-01 14:35 -27.77265 -69.82234 35536 ft 434 kts
2026-05-01 14:35 -27.71250 -69.81113 35554 ft 436 kts
2026-05-01 14:36 -27.65251 -69.79994 35576 ft 435 kts
2026-05-01 14:36 -27.59280 -69.78883 35557 ft 435 kts
2026-05-01 14:37 -27.53291 -69.77771 35557 ft 436 kts
2026-05-01 14:37 -27.47269 -69.76642 35540 ft 436 kts
2026-05-01 14:38 -27.41279 -69.75521 35563 ft 437 kts
2026-05-01 14:38 -27.35286 -69.74403 35558 ft 437 kts
2026-05-01 14:39 -27.29320 -69.73292 35610 ft 435 kts
2026-05-01 14:39 -27.23322 -69.72179 35617 ft 436 kts
2026-05-01 14:40 -27.17291 -69.71061 35613 ft 436 kts
2026-05-01 14:40 -27.11259 -69.69942 35626 ft 437 kts
2026-05-01 14:41 -27.05249 -69.68828 35644 ft 437 kts
2026-05-01 14:41 -26.99218 -69.67715 35622 ft 436 kts
2026-05-01 14:42 -26.93210 -69.66605 35601 ft 436 kts
2026-05-01 14:42 -26.87208 -69.65498 35642 ft 436 kts
2026-05-01 14:43 -26.81184 -69.64389 35655 ft 436 kts
2026-05-01 14:43 -26.75190 -69.63284 35672 ft 436 kts
2026-05-01 14:44 -26.69179 -69.62180 35648 ft 437 kts
2026-05-01 14:44 -26.60176 -69.60525 35642 ft 436 kts
2026-05-01 14:45 -26.51219 -69.58882 35630 ft 436 kts
2026-05-01 14:46 -26.45218 -69.57784 35608 ft 435 kts
2026-05-01 14:46 -26.36255 -69.56144 35656 ft 434 kts
2026-05-01 14:47 -26.30304 -69.55059 35627 ft 433 kts
2026-05-01 14:48 -26.21345 -69.53424 35622 ft 434 kts
2026-05-01 14:48 -26.12390 -69.51794 35663 ft 432 kts
2026-05-01 14:49 -26.00473 -69.49628 35643 ft 431 kts
2026-05-01 14:50 -25.88599 -69.47473 35665 ft 432 kts
2026-05-01 14:51 -25.79686 -69.45861 35650 ft 432 kts
2026-05-01 14:52 -25.70791 -69.44252 35700 ft 431 kts
2026-05-01 14:53 -25.61888 -69.42646 35714 ft 430 kts
2026-05-01 14:53 -25.55987 -69.41583 35721 ft 431 kts
2026-05-01 14:54 -25.50053 -69.40511 35711 ft 431 kts
2026-05-01 14:54 -25.44151 -69.39445 35713 ft 430 kts
2026-05-01 14:55 -25.38268 -69.38390 35723 ft 430 kts
2026-05-01 14:55 -25.32343 -69.37322 35722 ft 430 kts
2026-05-01 14:56 -25.26450 -69.36265 35771 ft 429 kts
2026-05-01 14:56 -25.20540 -69.35207 35756 ft 429 kts
2026-05-01 14:57 -25.14624 -69.34126 35743 ft 428 kts
2026-05-01 14:57 -25.05797 -69.32517 35736 ft 429 kts
2026-05-01 14:58 -24.99915 -69.31458 35728 ft 427 kts
2026-05-01 14:58 -24.94076 -69.30411 35730 ft 427 kts
2026-05-01 14:59 -24.88202 -69.29363 35735 ft 426 kts
2026-05-01 14:59 -24.82317 -69.28316 35734 ft 427 kts
2026-05-01 15:00 -24.73476 -69.26742 35691 ft 428 kts
2026-05-01 15:01 -24.67633 -69.25703 35695 ft 427 kts
2026-05-01 15:01 -24.61742 -69.24656 35702 ft 426 kts
2026-05-01 15:02 -24.55905 -69.23621 35704 ft 425 kts
2026-05-01 15:02 -24.50024 -69.22579 35665 ft 426 kts
2026-05-01 15:03 -24.44156 -69.21540 35670 ft 427 kts
2026-05-01 15:03 -24.38294 -69.20503 35653 ft 427 kts
2026-05-01 15:04 -24.32385 -69.19460 35663 ft 427 kts
2026-05-01 15:04 -24.26510 -69.18421 35656 ft 427 kts
2026-05-01 15:05 -24.20653 -69.17387 35622 ft 426 kts
2026-05-01 15:05 -24.14761 -69.16349 35622 ft 427 kts
2026-05-01 15:06 -24.08907 -69.15318 35601 ft 427 kts
2026-05-01 15:06 -24.03032 -69.14284 35587 ft 426 kts
2026-05-01 15:07 -23.97149 -69.13250 35566 ft 427 kts
2026-05-01 15:07 -23.91300 -69.12224 35542 ft 426 kts
2026-05-01 15:08 -23.85432 -69.11195 35535 ft 426 kts
2026-05-01 15:08 -23.79565 -69.10169 35539 ft 426 kts
2026-05-01 15:09 -23.73743 -69.09149 35540 ft 426 kts
2026-05-01 15:09 -23.67860 -69.08119 35537 ft 426 kts
2026-05-01 15:10 -23.62007 -69.07098 35551 ft 424 kts
2026-05-01 15:10 -23.53250 -69.05571 35567 ft 425 kts
2026-05-01 15:11 -23.44508 -69.04052 35579 ft 424 kts
2026-05-01 15:12 -23.38683 -69.03040 35606 ft 423 kts
2026-05-01 15:12 -23.29909 -69.01511 35597 ft 424 kts
2026-05-01 15:14 -23.15369 -68.98933 35613 ft 423 kts
2026-05-01 15:14 -23.06636 -68.97397 35602 ft 423 kts
2026-05-01 15:15 -22.94940 -68.95345 35609 ft 424 kts
2026-05-01 15:16 -22.83298 -68.93310 35618 ft 422 kts
2026-05-01 15:18 -22.68854 -68.90788 35641 ft 421 kts
2026-05-01 15:19 -22.57213 -68.88764 35555 ft 423 kts
2026-05-01 15:19 -22.48540 -68.87367 35484 ft 419 kts 359°
2026-05-01 15:20 -22.39815 -68.86423 35547 ft 417 kts 359°
2026-05-01 15:21 -22.34073 -68.85805 35627 ft 416 kts 358°
2026-05-01 15:21 -22.28270 -68.85185 35653 ft 418 kts 358°
2026-05-01 15:22 -22.19619 -68.84265 35680 ft 416 kts 359°
2026-05-01 15:22 -22.13857 -68.83654 35700 ft 415 kts 359°
2026-05-01 15:23 -22.08078 -68.83041 35750 ft 416 kts 359°
2026-05-01 15:23 -22.02321 -68.82430 35774 ft 416 kts 358°
2026-05-01 15:24 -21.96522 -68.81815 35781 ft 416 kts 359°
2026-05-01 15:24 -21.90760 -68.81208 35793 ft 416 kts 359°
2026-05-01 15:25 -21.84988 -68.80595 35798 ft 416 kts 359°
2026-05-01 15:25 -21.79201 -68.79983 35792 ft 416 kts 358°
2026-05-01 15:26 -21.73433 -68.79374 35799 ft 416 kts 359°
2026-05-01 15:26 -21.67637 -68.78764 35809 ft 416 kts 359°
2026-05-01 15:27 -21.61871 -68.78156 35825 ft 418 kts 359°
2026-05-01 15:28 -21.53185 -68.77242 35832 ft 417 kts 359°
2026-05-01 15:28 -21.47426 -68.76639 35838 ft 416 kts 359°
2026-05-01 15:29 -21.38754 -68.75727 35849 ft 417 kts 359°
2026-05-01 15:30 -21.27181 -68.74517 35863 ft 418 kts 359°
2026-05-01 15:31 -21.09785 -68.72677 35895 ft 418 kts 359°
2026-05-01 15:32 -20.98096 -68.71435 35915 ft 420 kts 359°
2026-05-01 15:34 -20.80666 -68.69591 35906 ft 420 kts 359°